LTB5 (KAYSERİ/SOĞANLI) TANITMALI BÖLGE

  • SEKTÖREL METEOROLOJİK DEĞERLENDİRME

  • SOĞANLI UÇULMAZ

Meteorolojik şartların belirlenen saat aralığında uçuş için uygun olmadığı değerlendirilmiştir.

  • GÜNCELLEME TARİHİ ve SAATİ :

  • 26.05.2024 - 06:02

  • GEÇERLİ TARİH ve SAATLER :

  • 26.05.2024 - 06:05 - 16:55

Büyük Harita İçin Tıklayınız

Sıcaklık
Basınç
Gün Doğum Saati
Gün Batım Saati
Bu bölümde yer alan bildirim meteorolojik veriler doğrultusunda ilgili gün ve zaman aralığında planlanan uçuşlara dair bağlayıcı niteliktedir. Kırmızı ve Sarı bayrak durumlarında kalkış uygunluğu verilmeyecektir. Yeşil bayrak durumunda nihai uçma kararı pilot ve işletme sorumluluğundadır
Kırmızı ve/veya sarı bayrağın ilan edildiği durumlarda yalnızca öğretmen pilot ile beraber yapılacak eğitim uçuşları (çift kumanda) için SHGM yetkilileri ile irtibata geçilerek eğitim uçuşları gerçekleştirilebilecektir.

METAR

LTAZ 252220Z 00000KT CAVOK 11/11 Q1014 RMK RWY29 35002KT

TAFF

TAF LTAZ 251640Z 2518/2618 VRB02KT 9999 SCT035 BKN100 TEMPO 2518/2521 VRB15G25KT -TSRA FEW027CB BKN035 PROB40 TEMPO 2600/2604 3500 -SHRA BR SCT007 BKN025 PROB40 TEMPO 2614/2618 VRB15G25KT -TSRA FEW027CB BKN035

METAR - TAF bilgileri Aviation Weather Center'dan alınmaktadır.

AIRGRAM

Göreme Airgramı, Meteoroloji Genel Müdürlüğü'nden alınmaktadır.

Meteorolojik veriler sitede bilgilendirme amacıyla yer almaktadır.